#timestamp,LO_Frequency,Hit,StdDev 
1517540415.5,286047002.5,N
1517540435.3,286047001.9,N
1517540455.1,286047004.0,N
1517540475.9,286047004.0,N
1517540495.7,286047001.7,N
1517540515.5,286047001.4,N
1517540535.4,286047001.7,N
1517540555.2,286047004.0,N
1517540575.1,286047003.8,N
1517540576.0,286047003.8,N
1517540595.8,286047001.7,N
1517540615.6,286047002.8,N
1517540635.5,286047002.6,N
1517540655.3,286047002.5,N
1517540675.1,286047004.0,N
1517540695.9,286047000.0,N
1517540715.7,286047000.3,N
1517540735.6,286046999.8,N
1517540755.4,286047002.5,N
1517540775.2,286047002.0,N
1517540795.1,286047002.6,N
1517540796.0,286047002.6,N
1517540815.8,286047004.4,Y
1517540835.7,286047002.6,P
1517540855.5,286046999.8,N
1517540875.3,286047000.4,N
1517540895.2,286047000.7,N
1517540915.9,286046998.4,N
1517540935.7,286046998.8,N
1517540955.6,286047000.7,N
1517540975.4,286047000.7,N
1517540995.2,286046999.0,N
1517541015.1,286046999.3,N
1517541016.0,286046999.3,N
1517541035.8,286046998.3,N
1517541055.7,286047000.6,N
1517541075.5,286047000.9,N
1517541095.3,286047000.2,N
1517541115.2,286046999.8,N
1517541135.0,286046998.1,N
1517541135.9,286046998.1,N
1517541155.8,286046998.4,N
1517541175.6,286046996.5,N
1517541195.4,286046999.3,N
1517541215.3,286046999.3,N
1517541235.1,286046997.3,N
1517541255.8,286046996.9,N
1517541275.7,286046997.3,N
1517541295.5,286046997.2,N
1517541315.4,286046996.5,N
1517541335.2,286046997.9,N
1517541355.0,286046994.9,Y
1517541355.9,286046994.9,P
1517541375.8,286046995.2,N
1517541395.6,286046995.8,N
1517541415.5,286046993.3,Y
1517541435.3,286046998.6,P
1517541455.1,286046996.9,N
1517541475.9,286046999.5,N
1517541495.7,286046999.5,N
1517541515.5,286046999.1,N
1517541535.4,286046999.2,N
1517541555.3,286046997.6,N
1517541575.1,286046997.3,N
1517541595.9,286046996.7,N
1517541615.7,286046999.4,N
1517541635.5,286046996.9,N
1517541655.4,286046997.0,N
1517541675.2,286046998.3,N
1517541695.1,286046999.3,N
1517541696.0,286046999.3,N
1517541715.8,286046999.1,N
1517541735.6,286046999.2,N
1517541755.5,286046996.8,N
1517541775.3,286046997.1,N
1517541795.1,286046997.2,N
1517541815.9,286046997.2,N
1517541835.7,286046996.8,N
1517541855.6,286046995.6,Y
1517541875.4,286046996.8,P
1517541895.2,286046998.8,N
1517541915.1,286046998.3,N
1517541916.0,286046998.3,N
1517541935.8,286046999.3,N
1517541955.7,286047011.9,Y
1517541975.5,286046999.9,P
1517541995.3,286046998.6,N
1517542015.2,286046999.6,N
1517542035.0,286046999.6,N
1517542035.9,286046999.6,N
1517542055.7,286046998.4,N
1517542075.6,286047001.1,N
1517542095.4,286046998.3,N
1517542115.3,286046998.4,N
1517542135.1,286046999.1,N
1517542136.0,286046999.1,N
1517542155.8,286046997.5,Y
1517542175.7,286046996.5,P
1517542195.5,286046999.6,N
1517542215.3,286046996.9,N
1517542235.2,286046999.2,N
1517542255.0,286046997.1,N
1517542255.9,286046997.1,N
1517542275.8,286046997.0,N
1517542295.6,286046996.7,N
1517542315.4,286046997.6,N
1517542335.3,286046995.2,Y
1517542355.1,286046999.6,P
1517542375.9,286046999.1,N
1517542395.7,286046999.4,N
1517542415.5,286047001.2,N
1517542435.4,286046998.1,N
1517542455.2,286046999.0,N
1517542475.0,286046998.6,N
1517542475.9,286046998.6,N
1517542495.8,286046998.6,N
1517542515.6,286046998.8,N
1517542535.5,286046998.6,N
1517542555.3,286047001.0,N
1517542575.1,286046998.1,N
1517542595.9,286046998.2,N
1517542615.7,286046998.7,N
1517542635.6,286046998.9,N
1517542655.4,286046996.7,Y
1517542675.2,286046996.6,P
1517542695.1,286046999.0,N
1517542696.0,286046999.0,N
1517542715.8,286047001.2,N
1517542735.7,286047001.2,N
1517542755.5,286046998.1,N
1517542775.3,286047000.4,N
1517542795.2,286046998.4,N
1517542815.0,286047002.8,N
1517542815.9,286047002.8,N
1517542835.8,286046999.9,N
1517542855.6,286047000.2,N
1517542875.4,286047002.7,N
1517542895.3,286047002.6,N
1517542915.1,286047000.9,N
1517542935.8,286046998.4,N
1517542955.7,286047000.7,N
1517542975.5,286047000.3,N
1517542995.4,286047002.6,N
1517543015.2,286047001.8,N
1517543035.0,286047001.5,N
1517543035.9,286047001.5,N
1517543055.8,286047002.4,N
1517543075.6,286047000.1,N
1517543095.5,286046998.4,N
1517543115.3,286046998.5,N
1517543135.1,286046998.9,N
1517543155.9,286046998.7,N
1517543175.7,286047002.3,N
1517543195.6,286047002.8,N
1517543215.4,286047002.5,N
1517543235.2,286047000.6,N
1517543255.1,286047001.2,N
1517543256.0,286047001.2,N
1517543275.8,286047001.0,N
1517543295.7,286047000.9,N
1517543315.5,286046998.5,N
1517543335.3,286047000.9,N
1517543355.2,286047000.2,N
1517543375.0,286046999.8,N
1517543375.9,286046999.8,N
1517543395.7,286047000.5,N
1517543415.6,286047001.1,N
1517543435.4,286046998.3,N
1517543455.3,286047000.2,N
1517543475.1,286047001.0,N
1517543476.0,286047001.0,N
1517543495.8,286047001.1,N
1517543515.7,286046998.8,N
1517543535.5,286046998.8,N
1517543555.4,286047000.8,N
1517543575.2,286047002.8,N
1517543595.0,286047002.0,N
1517543595.9,286047002.0,N
1517543615.5,286047002.3,N
1517543635.3,286047002.6,N
1517543655.2,286047001.5,N
1517543675.9,286047002.8,N
1517543695.7,286047002.1,N
1517543715.6,286047002.4,N
1517543735.4,286047001.6,N
1517543755.3,286047003.9,Y
1517543775.1,286047002.6,P
1517543776.0,286047002.6,P
1517543795.8,286047002.7,P
1517543815.7,286047000.1,N
1517543835.5,286047000.0,N
1517543855.3,286046999.9,N
1517543875.2,286046998.4,N
1517543895.0,286047000.2,N
1517543895.9,286047000.2,N
1517543915.8,286047000.2,N
1517543935.6,286047002.1,N
1517543955.4,286047001.5,N
1517543975.3,286047002.3,N
1517543995.1,286047003.9,Y
